Location: Chilton Park
(37.7711°N, 100.0276°W)
Time: 13:25:19
(UTC+00:00)

Cosmos 2227 Rocket - Pass Details

Date: 04 July 2022
Orbit: 840 x 844 km, 71.0° (Epoch: 18 August)

Event Time Altitude Azimuth Distance (km) Brightness Sun altitude
Exits shadow 10:10:09 15° 249° (WSW) 2,132 3.7 -12.5°
Maximum altitude 10:13:55 29° 301° (WNW) 1,502 3.4 -12.0°
Drops below altitude 10° 10:18:48 10° 1° (N) 2,470 5.3 -11.2°
Sets 10:21:36 0° 13° (NNE) 3,408 6.3 -10.8°
